Aérodrome :
LOGIN :

S'inscrire | Disclaimer

   EN    FR    IT 

 










Légende :    VFR   VFR Marginal   IFR   IFR Intensif   IFR Très Intensif
Visi : 
Plafond : 
>= 8 km
>= 3000ft
5 à 8 km
1000 à 3000 ft
1500m à 5 km
500 à 1000 ft
800 à 1500m
200 à 500 ft
< 800m
< 200 ft
Symboles :   Orages  Brouillard  Fortes neiges  Fortes précipitations  Vent > 20 kt
SIGMETs :   Divers  Orages  Givrage  Turbulence  Onde Orograph.  Cendres Volcan.







- Altitude de l'aérodrome : 157 ft
- Code IATA : SXF


EDDB - Berlin Schönefeld

DERNIER METAR :
  • 230350Z 29007KT CAVOK 18/15 Q1015 NOSIG

METARs EXPIRÉS :
  • 230320Z 28006KT CAVOK 18/15 Q1014 NOSIG
  • 230250Z 28006KT CAVOK 18/15 Q1014 NOSIG
  • 230220Z 28007KT CAVOK 19/15 Q1014 NOSIG
  • 230150Z 28007KT CAVOK 19/15 Q1014 NOSIG
  • 230120Z 28005KT CAVOK 19/15 Q1014 NOSIG

TAF TAF EDDB
Valide du 23 à 00h jusqu'au 24 à 00h UTC


222300Z 2300/2324 29005KT CAVOK
BECMG 2313/2315 35006KT
Pas de NOTAMs connus pour ce terrain.



MET'MAP, la Météo Aéronautique d'un coup d'oeil ! - Copyright ORBIFLY Décembre 2007 - Disclaimer

ORBIFLY MET'MAP TEAM :

Programmation & Développement : Alexandra Zaïnal
Conception & Développement : Baudouin d'Aumeries
Co-Programmation & Développement : Marc-Olivier Méhu
Soutien technique & logistique : Manuel Goepfert

Contact : metmap@orbifly.com




SOURCES & CREDITS :

   NOAA